SV2RCS-13 Weather Reports


time (UTC)temp
C
wind
direction
speed
KPH
gust
KPH
rain 1hr
cm
rain 24hr
cm
rain mn
cm
humidity
%
barometer
mb
20260506131702 22 0.0 0.0 0.00 0.00 0.00 19 1011.1
20260506130702 22 0.0 0.0 0.00 0.00 0.00 19 1011.1
20260506125701 22 0.0 0.0 0.00 0.00 0.00 19 1011.3
20260506124702 22 0.0 0.0 0.00 0.00 0.00 19 1011.3
20260506123701 22 0.0 0.0 0.00 0.00 0.00 19 1011.4
20260506122705 22 0.0 0.0 0.00 0.00 0.00 19 1011.6
20260506121701 22 0.0 0.0 0.00 0.00 0.00 19 1011.5
20260506120702 22 0.0 0.0 0.00 0.00 0.00 19 1011.7
20260506115701 22 0.0 0.0 0.00 0.00 0.00 20 1011.8
20260506114702 22 0.0 0.0 0.00 0.00 0.00 19 1012.0
20260506113701 22 0.0 0.0 0.00 0.00 0.00 19 1012.1
20260506112701 22 0.0 0.0 0.00 0.00 0.00 19 1012.1
20260506111701 22 0.0 0.0 0.00 0.00 0.00 19 1012.2
20260506110702 22 0.0 0.0 0.00 0.00 0.00 19 1012.2
20260506105702 22 0.0 0.0 0.00 0.00 0.00 19 1012.2
20260506104701 22 0.0 0.0 0.00 0.00 0.00 19 1012.3
20260506103702 22 0.0 0.0 0.00 0.00 0.00 20 1012.4
20260506102702 21 0.0 0.0 0.00 0.00 0.00 21 1012.6
20260506101701 21 0.0 0.0 0.00 0.00 0.00 23 1012.7
20260506100701 21 0.0 0.0 0.00 0.00 0.00 24 1012.8
20260506095701 21 0.0 0.0 0.00 0.00 0.00 25 1012.8
20260506094702 21 0.0 0.0 0.00 0.00 0.00 25 1013.0
20260506093702 21 0.0 0.0 0.00 0.00 0.00 24 1013.0
20260506092702 21 0.0 0.0 0.00 0.00 0.00 24 1013.0
20260506091702 21 0.0 0.0 0.00 0.00 0.00 24 1013.0
20260506090702 22 0.0 0.0 0.00 0.00 0.00 24 1012.9
20260506085701 22 0.0 0.0 0.00 0.00 0.00 24 1012.9
20260506084702 23 0.0 0.0 0.00 0.00 0.00 23 1012.8
20260506083702 23 0.0 0.0 0.00 0.00 0.00 24 1012.5
20260506082701 25 0.0 0.0 0.00 0.00 0.00 22 1012.3
20260506081702 23 0.0 0.0 0.00 0.00 0.00 23 1012.6
20260506080701 23 0.0 0.0 0.00 0.00 0.00 23 1012.5
20260506072701 22 0.0 0.0 0.00 0.00 0.00 24 1012.7
20260506071703 23 0.0 0.0 0.00 0.00 0.00 25 1012.7
20260506070702 22 0.0 0.0 0.00 0.00 0.00 25 1013.0
20260506061703 21 0.0 0.0 0.00 0.00 0.00 24 1013.5
20260506060702 21 0.0 0.0 0.00 0.00 0.00 24 1013.8
20260506050701 20 0.0 0.0 0.00 0.00 0.00 27 1014.3
20260506044701 18 0.0 0.0 0.00 0.00 0.00 34 1014.6
20260506043701 16 0.0 0.0 0.00 0.00 0.00 40 1014.6
20260506042701 16 0.0 0.0 0.00 0.00 0.00 35 1014.8
20260506041701 16 0.0 0.0 0.00 0.00 0.00 35 1014.9
20260506040701 15 0.0 0.0 0.00 0.00 0.00 39 1015.0
20260506035701 15 0.0 0.0 0.00 0.00 0.00 37 1014.8
20260506034702 13 0.0 0.0 0.00 0.00 0.00 38 1015.0
20260506033701 13 0.0 0.0 0.00 0.00 0.00 39 1015.1
20260506032700 13 0.0 0.0 0.00 0.00 0.00 37 1014.9
20260506031701 14 0.0 0.0 0.00 0.00 0.00 36 1014.7
20260506030701 14 0.0 0.0 0.00 0.00 0.00 36 1014.6
20260506025701 14 0.0 0.0 0.00 0.00 0.00 35 1014.4
20260506024702 14 0.0 0.0 0.00 0.00 0.00 34 1014.5
20260506023701 14 0.0 0.0 0.00 0.00 0.00 35 1014.5
20260506022701 14 0.0 0.0 0.00 0.00 0.00 35 1014.6
20260506021701 14 0.0 0.0 0.00 0.00 0.00 34 1014.5
20260506020701 14 0.0 0.0 0.00 0.00 0.00 34 1014.6
20260506015701 15 0.0 0.0 0.00 0.00 0.00 34 1014.5
20260506014702 15 0.0 0.0 0.00 0.00 0.00 34 1014.6
20260506013701 15 0.0 0.0 0.00 0.00 0.00 33 1014.5
20260506012701 15 0.0 0.0 0.00 0.00 0.00 32 1014.5
20260506011704 15 0.0 0.0 0.00 0.00 0.00 32 1014.2
20260506010701 15 0.0 0.0 0.00 0.00 0.00 32 1014.2
20260506005701 15 0.0 0.0 0.00 0.00 0.00 32 1014.2
20260506004700 15 0.0 0.0 0.00 0.00 0.00 33 1014.1
20260506003702 16 0.0 0.0 0.00 0.00 0.00 32 1014.0
20260506002702 16 0.0 0.0 0.00 0.00 0.00 32 1014.0
20260506001700 16 0.0 0.0 0.00 0.00 0.00 30 1013.9
20260506000702 16 0.0 0.0 0.00 0.00 0.00 30 1014.0
20260505235701 16 0.0 0.0 0.00 0.00 0.00 31 1014.0
20260505234702 16 0.0 0.0 0.00 0.00 0.00 31 1013.8
20260505233700 16 0.0 0.0 0.00 0.00 0.00 32 1014.0
20260505232701 16 0.0 0.0 0.00 0.00 0.00 34 1014.0
20260505231701 16 0.0 0.0 0.00 0.00 0.00 33 1014.1
20260505230701 16 0.0 0.0 0.00 0.00 0.00 33 1014.0
20260505225701 17 0.0 0.0 0.00 0.00 0.00 33 1013.9
20260505224702 17 0.0 0.0 0.00 0.00 0.00 34 1014.0
20260505223701 17 0.0 0.0 0.00 0.00 0.00 34 1014.0
20260505222701 17 0.0 0.0 0.00 0.00 0.00 34 1013.9
20260505221702 17 0.0 0.0 0.00 0.00 0.00 34 1013.9
20260505220701 17 0.0 0.0 0.00 0.00 0.00 34 1013.9
20260505215701 17 0.0 0.0 0.00 0.00 0.00 34 1013.9
20260505214701 17 0.0 0.0 0.00 0.00 0.00 34 1013.8
20260505213701 17 0.0 0.0 0.00 0.00 0.00 34 1013.8
20260505212701 17 0.0 0.0 0.00 0.00 0.00 34 1013.7
20260505211701 17 0.0 0.0 0.00 0.00 0.00 34 1013.7
20260505210701 17 0.0 0.0 0.00 0.00 0.00 34 1013.8
20260505205702 17 0.0 0.0 0.00 0.00 0.00 34 1013.8
20260505204701 17 0.0 0.0 0.00 0.00 0.00 34 1013.8
20260505203703 17 0.0 0.0 0.00 0.00 0.00 34 1014.0
20260505202702 17 0.0 0.0 0.00 0.00 0.00 34 1013.9
20260505201701 17 0.0 0.0 0.00 0.00 0.00 34 1013.8
20260505200701 17 0.0 0.0 0.00 0.00 0.00 34 1013.7
20260505195703 17 0.0 0.0 0.00 0.00 0.00 34 1013.7
20260505194701 17 0.0 0.0 0.00 0.00 0.00 34 1013.8
20260505193701 17 0.0 0.0 0.00 0.00 0.00 34 1013.9
20260505192704 16 0.0 0.0 0.00 0.00 0.00 34 1013.9
20260505191701 16 0.0 0.0 0.00 0.00 0.00 35 1013.9
20260505190701 16 0.0 0.0 0.00 0.00 0.00 33 1013.8
20260505185701 16 0.0 0.0 0.00 0.00 0.00 33 1013.6
20260505184701 16 0.0 0.0 0.00 0.00 0.00 32 1013.4
20260505183701 16 0.0 0.0 0.00 0.00 0.00 31 1013.4
20260505182700 17 0.0 0.0 0.00 0.00 0.00 29 1013.3
20260505181701 17 0.0 0.0 0.00 0.00 0.00 29 1013.2
20260505180701 17 0.0 0.0 0.00 0.00 0.00 28 1013.0
20260505175701 17 0.0 0.0 0.00 0.00 0.00 31 1013.0
20260505174700 17 0.0 0.0 0.00 0.00 0.00 31 1012.9
20260505173708 17 0.0 0.0 0.00 0.00 0.00 32 1012.7
20260505172701 17 0.0 0.0 0.00 0.00 0.00 33 1012.6
20260505171701 17 0.0 0.0 0.00 0.00 0.00 34 1012.6
20260505170701 17 0.0 0.0 0.00 0.00 0.00 35 1012.4
20260505165700 18 0.0 0.0 0.00 0.00 0.00 35 1012.2
20260505164701 18 0.0 0.0 0.00 0.00 0.00 36 1012.2
20260505163701 18 0.0 0.0 0.00 0.00 0.00 35 1012.1
20260505162700 18 0.0 0.0 0.00 0.00 0.00 35 1012.0
20260505161701 19 0.0 0.0 0.00 0.00 0.00 30 1011.9
20260505160701 19 0.0 0.0 0.00 0.00 0.00 22 1011.8
20260505152701 20 0.0 0.0 0.00 0.00 0.00 20 1011.8
20260505151701 20 0.0 0.0 0.00 0.00 0.00 20 1011.7
20260505150701 20 0.0 0.0 0.00 0.00 0.00 20 1011.7